Showing default

ICEYE-X5, 44389

Orbit data source: Space-Track

ICEYE-X5, 44389 is a payload satellite owned by ICEYE (FI) in SSO that was launched on Fri, 05 Jul 2019 UTC via a SOYUZ-2-1B launch vehicle from the Vostochny Cosmodrome (VOSTO). Payload-class satellites include a variety of spacecraft equipped with specific instruments for various scientific and technological missions. These include communications satellites like Starlink; space stations such as the ISS; scientific satellites like the Hubble; Earth observation satellites from companies like Planet Labs, Umbra, and HawkEye 360; GPS; miniature CubeSats for education and research; and military/defense satellites.

Loading next visibility...
Identifier
44389, 2019-038C
Orbit
SSO
Country
Flag of FIFI / FIN
Related business
Manufacturer
ICEYE
Mission
Non-operational Commercial Radar Imaging
Bus & Motor
ICEYE, Unknown motor
Mass
80 kg wet, 80 kg dry
Launch date (UTC)
2019-07-05 (7 years ago)
Launch vehicle
SOYUZ-2-1B
Launch site
Vostochny Cosmodrome (VOSTO)
Object type
Payload
Rocket body
Debris
Shape & HBR
Box + 1 Pan, 1.6 m
Radar Cross Section
1.837 m², Large (>1 m²)

Expand to show TLE details & history
Last TLE update: 12 hours ago

TLE from 12 hours ago
0 ICEYE-X5
1 44389U 19038C   26125.82487149  .00045930  00000-0  76105-3 0  9991
2 44389  97.8726 176.3970 0006098  61.7436 298.4430 15.52011561376386
Epoch: 2026-05-05T19:47Z
TLE epoch observation values (Epoch: 2026-05-05T19:47:48.896Z)
Latitude
-0.00003°
Longitude
15.74911°
Altitude
412.003 km
Speed
7.665 km/s
True Right ascension
11h 45m 35s
True Declination
0° 00' 00"
Sunlit
Object was in full shadow at epoch
Visualization orbit readout
Latitude
Unknown
Longitude
Unknown
Altitude
Unknown
Speed
Unknown
Apparent Right ascension
Unknown
Apparent Declination
Unknown
Sunlit
N/A
Visualization observer readout
Local Sidereal Time
15:44:20
Azimuth
Unknown
Elevation
Unknown
Doppler factor
Unknown
Orbital elements
Apogee altitude
411.936 km
Perigee altitude
403.66 km
Semi-major axis
6,785.935 km
Eccentricity
0.00061
Inclination
97.8726°
RAAN
176.397°
Arg. of periapsis
61.7436°
True anomaly
298.38153°
Mean anomaly
298.443°
Eccentric anomaly
298.41227°
Mean motion
3.88265 °/min
Orbital period
92.72 mins
BSTAR
0.00076105
Loading maneuver chart data...
Computing Atmospheric mass density...

Documentation

Showing up to 5 results
|